SCP
0 0 0 0 0 0 0 0 0 0 0 0 0 0 0 0 0 0 0 0 0 0 0 0 0 0 0 0 0 0 0 0 0 0 0 0 0 0 0 0 0 0 0
0 0 0 0 0 0 0 0 0 0 0 0 0 0 0 0 0 0 0 0 0 0 0 0 0 0 0 0 0 0 0 0 0 0 0 0 0 0 0 0 0 0 0
0 0 0 0 0 0 0 0 0 0 0 0 0 0 0 0 0 0 0 0 0 0 0 0 0 0 0 0 0 0 0 0 0 0 0 0 0 0 0 0 0 0 0
0 0 0 0 0 0 0 0 0 0 0 0 0 0 0 0 0 0 0 0 0 0 0 0 0 0 0 0 0 0 0 0 0 0 0 0 0 0 0 0 0 0 0
0 0 0 0 0 0 0 0 0 0 0 0 0 0 0 0 0 0 0 0 0 0 0 0 0 0 0 0 0 0 0 0 0 0 0 0 0 0 0 0 0 0 0
0 0 0 0 0 0 0 0 0 0 0 0 0 0 0 0 0 0 0 0 0 0 0 0 0 0 0 0 0 0 0 0 0 0 0 0 0 0 0 0 0 0 0
0 0 0 0 0 0 0 0 0 0 0 0 0 0 0 0 0 0 0 0 0 0 0 0 0 0 0 0 0 0 0 0 0 0 0 0 0 0 0 0 0 0 0
0 0 0 0 0 0 0 0 0 0 0 0 0 0 0 0 0 0 0 0 0 0 0 0 0 0 0 0 0 0 0 0 0 0 0 0 0 0 0 0 0 0 0
0 0 0 0 0 0 0 0 0 0 0 0 0 0 0 0 0 0 0 0 0 0 0 0 0 0 0 0 0 0 0 0 0 0 0 0 0 0 0 0 0 0 0
0 0 0 0 0 0 0 0 0 0 0 0 0 0 0 0 0 0 0 0 0 0 0 0 0 0 0 0 0 0 0 0 0 0 0 0 0 0 0 0 0 0 0
0 0 0 0 0 0 0 0 0 0 0 0 0 0 0 0 0 0 0 0 0 0 0 0 0 0 0 0 0 0 0 0 0 0 0 0 0 0 0 0 0 0 0
0 0 0 0 0 0 0 0 0 0 0 0 0 0 0 0 0 0 0 0 0 0 0 0 0 0 0 0 0 0 0 0 0 0 0 0 0 0 0 0 0 0 0
0 0 0 0 0 0 0 0 0 0 0 0 0 0 0 0 0 0 0 0 0 0 0 0 0 0 0 0 0 0 0 0 0 0 0 0 0 0 0 0 0 0 0
0 0 0 0 0 0 0 0 0 0 0 0 0 0 0 0 0 0 0 0 0 0 0 0 0 0 0 0 0 0 0 0 0 0 0 0 0 0 0 0 0 0 0
0 0 0 0 0 0 0 0 0 0 0 0 0 0 0 0 0 0 0 0 0 0 0 0 0 0 0 0 0 0 0 0 0 0 0 0 0 0 0 0 0 0 0
0 0 0 0 0 0 0 0 0 0 0 0 0 0 0 0 0 0 0 0 0 0 0 0 0 0 0 0 0 0 0 0 0 0 0 0 0 0 0 0 0 0 0
0 0 0 0 0 0 0 0 0 0 0 0 0 0 0 0 0 0 0 0 0 0 0 0 0 0 0 0 0 0 0 0 0 0 0 0 0 0 0 0 0 0 0
0 0 0 0 0 0 0 0 0 0 0 0 0 0 0 0 0 0 0 0 0 0 0 0 0 0 0 0 0 0 0 0 0 0 0 0 0 0 0 0 0 0 0
0 0 0 0 0 0 0 0 0 0 0 0 0 0 0 0 0 0 0 0 0 0 0 0 0 0 0 0 0 0 0 0 0 0 0 0 0 0 0 0 0 0 0
0 0 0 0 0 0 0 0 0 0 0 0 0 0 0 0 0 0 0 0 0 0 0 0 0 0 0 0 0 0 0 0 0 0 0 0 0 0 0 0 0 0 0
0 0 0 0 0 0 0 0 0 0 0 0 0 0 0 0 0 0 0 0 0 0 0 0 0 0 0 0 0 0 0 0 0 0 0 0 0 0 0 0 0 0 0
0 0 0 0 0 0 0 0 0 0 0 0 0 0 0 0 0 0 0 0 0 0 0 0 0 0 0 0 0 0 0 0 0 0 0 0 0 0 0 0 0 0 0
0 0 0 0 0 0 0 0 0 0 0 0 0 0 0 0 0 0 0 0 0 0 0 0 0 0 0 0 0 0 0 0 0 0 0 0 0 0 0 0 0 0 0
0 0 0 0 0 0 0 0 0 0 0 0 0 0 0 0 0 0 0 0 0 0 0 0 0 0 0 0 0 0 0 0 0 0 0 0 0 0 0 0 0 0 0
0 0 0 0 0 0 0 0 0 0 0 0 0 0 0 0 0 0 0 0 0 0 0 0 0 0 0 0 0 0 0 0 0 0 0 0 0 0 0 0 0 0 0
0 0 0 0 0 0 0 0 0 0 0 0 0 0 0 0 0 0 0 -0 -0 -0 -0 0 0 0 0 0 0 0 0 0 0 0 0 0 0 0 0 0 0 0 0
Wind_Speed
13 13 13 13 13 13 12 12 11 11 11 12 11 11 11 10 9 8 7 6 7 6 5 5 5 3 3 2 2 1 1 1 3 3 3 5 7 9 10 9 9 9 9
12 14 15 14 14 14 14 13 13 12 12 12 11 11 11 10 8 8 7 6 6 5 4 4 3 2 2 1 1 1 1 2 3 5 5 5 7 9 9 10 9 9 9
12 14 14 14 14 14 13 13 13 12 12 12 11 11 10 9 8 7 6 5 5 4 3 2 1 1 1 1 1 1 1 2 3 4 6 5 5 6 7 9 10 9 10
13 14 14 13 13 12 12 12 12 11 11 10 10 9 9 8 7 6 5 5 5 4 3 2 1 1 1 1 1 2 2 3 3 4 6 6 6 6 6 7 9 9 9
12 13 12 11 11 11 12 11 11 10 10 8 8 8 6 6 5 5 5 5 4 4 4 4 3 3 2 1 1 2 2 3 5 6 6 6 7 7 7 6 9 9 10
11 11 11 11 11 10 10 10 9 8 7 6 6 6 6 5 7 8 6 4 4 4 4 5 5 4 6 6 6 6 6 6 7 6 6 8 10 9 8 7 8 8 7
10 10 10 9 9 8 8 8 7 6 5 5 5 4 4 4 6 7 8 4 4 4 4 4 4 5 6 4 7 10 10 12 11 8 9 10 9 8 8 9 8 9 9
9 8 8 7 7 7 7 7 5 4 4 3 2 2 2 2 4 5 6 4 3 4 4 4 4 6 5 6 7 8 9 10 10 7 8 10 10 9 8 7 8 8 9
7 6 6 6 6 6 6 4 3 2 2 1 1 1 1 2 4 5 4 3 4 5 5 5 5 6 8 9 7 8 10 10 8 8 9 10 12 12 8 5 5 6 8
5 5 5 5 5 5 4 3 2 2 2 2 2 2 2 3 5 6 4 2 4 6 6 7 8 8 10 10 7 7 9 9 9 9 8 7 6 6 6 4 4 5 6
4 5 5 4 4 4 3 2 2 2 3 3 3 3 3 3 5 6 6 2 4 5 6 6 7 11 13 12 9 6 9 9 8 7 6 5 5 4 5 4 3 4 5
4 4 4 3 3 3 3 2 2 2 2 2 2 2 2 3 4 6 8 7 6 5 6 6 8 13 14 13 8 7 9 7 3 3 4 4 4 5 6 6 6 5 6
4 3 2 2 2 2 2 2 1 2 1 1 1 1 2 2 4 6 8 9 10 5 6 11 13 13 12 8 7 9 6 3 2 3 4 4 4 5 6 6 6 5 6
3 1 1 1 1 1 1 1 1 1 0 0 0 1 2 3 3 4 5 6 8 7 6 9 11 9 6 6 6 5 3 2 2 3 4 4 4 5 4 4 4 4 5
2 1 0 0 1 0 0 0 1 1 2 2 1 1 1 3 4 7 6 6 6 6 7 5 4 5 6 6 6 5 4 4 3 3 4 5 5 5 5 4 3 3 4
1 1 1 1 1 1 1 1 3 1 1 2 3 2 2 4 7 9 9 10 10 9 5 4 5 5 5 5 6 6 5 5 5 5 5 5 5 6 6 4 3 3 4
2 2 1 1 1 1 1 1 0 2 2 1 2 3 4 6 7 8 10 11 8 7 4 4 5 5 5 5 5 5 5 6 5 5 5 6 6 5 5 5 4 3 3
3 3 2 2 1 1 1 1 1 1 1 2 3 4 5 6 7 8 9 7 5 5 4 5 5 5 5 5 5 5 6 6 6 6 6 6 6 5 5 5 5 4 3
2 2 1 1 1 1 2 2 2 1 1 1 2 3 5 6 5 6 6 3 4 5 5 5 5 5 5 5 5 5 6 6 6 6 6 6 6 5 5 6 5 5 3
1 2 2 2 2 3 3 3 2 1 1 1 2 3 4 4 4 5 4 4 4 5 5 5 5 5 5 5 6 6 6 6 7 6 6 6 6 5 6 6 5 4 3
0 1 3 3 2 2 2 2 2 1 1 1 2 3 4 2 3 4 4 5 5 5 5 5 5 6 6 5 5 6 7 6 6 6 6 6 7 6 5 4 4 4 4
1 2 2 2 2 2 2 2 1 1 0 1 1 2 4 3 3 3 4 4 4 4 4 5 5 5 5 6 6 6 7 7 7 7 7 7 6 6 5 4 5 4 4
2 3 3 2 2 2 2 1 1 1 0 1 1 2 3 3 3 4 4 4 4 5 5 5 5 5 6 5 5 5 6 7 7 8 7 7 6 5 4 5 6 5 6
2 3 3 2 2 2 2 1 1 1 1 1 2 2 2 3 3 4 4 4 4 5 5 5 6 8 11 8 6 6 6 7 8 6 7 6 5 4 4 5 5 6 5
2 3 3 2 2 2 2 2 2 2 2 2 2 2 2 2 3 3 3 3 5 6 7 7 6 8 11 12 11 10 11 11 8 6 5 3 4 5 5 6 5 6 6
2 3 3 3 3 3 3 2 2 2 2 2 2 2 2 2 3 3 3 4 5 5 6 6 9 10 12 10 12 13 11 10 10 8 5 4 6 6 5 5 7 6 7
Wind_Direction
70 75 78 77 79 81 82 82 83 82 83 82 81 81 79 76 75 80 81 83 89 87 88 99 100 109 106 102 105 116 136 173 236 273 270 289 295 299 308 306 303 301 297
74 78 78 76 77 77 77 76 77 75 74 77 77 75 74 72 69 72 76 71 78 80 76 86 92 101 101 118 138 164 193 206 229 279 293 296 289 295 297 300 302 303 301
73 77 77 77 78 78 79 79 78 78 76 75 76 74 70 67 64 62 65 64 63 62 61 73 76 82 96 181 208 230 240 239 227 263 290 290 289 293 301 300 302 300 302
72 75 76 76 78 80 81 81 82 83 81 79 79 79 76 71 66 63 63 57 52 46 36 25 349 289 247 240 247 257 262 274 274 279 290 294 289 294 294 304 312 315 311
74 75 76 77 80 82 82 82 83 83 86 86 85 81 77 71 64 62 56 53 41 32 21 6 335 339 348 288 290 265 263 283 294 296 296 296 299 306 308 306 308 312 309
75 77 77 78 78 80 83 86 87 87 86 86 84 83 74 69 67 70 73 55 41 28 9 352 339 1 356 350 335 317 301 297 297 291 290 291 294 297 301 304 309 314 315
76 78 79 81 82 84 92 92 92 90 89 86 83 83 78 66 64 63 64 60 36 15 357 345 342 343 345 330 321 317 309 299 286 273 274 278 285 293 300 303 305 306 300
80 81 83 85 86 85 87 89 90 90 93 93 90 83 68 38 41 43 46 37 13 352 339 328 321 318 317 323 317 310 305 299 292 279 261 271 278 286 285 286 293 296 292
83 82 83 88 90 89 88 87 84 87 79 66 62 36 355 344 1 10 23 1 343 333 326 318 311 306 308 320 317 309 307 304 303 291 278 278 279 282 282 282 294 304 313
87 87 86 91 95 94 92 83 63 66 51 41 33 12 356 347 360 7 10 347 331 325 320 315 313 308 307 313 308 299 298 302 314 320 317 314 305 301 298 271 275 296 309
91 88 85 89 99 101 87 67 66 62 53 40 35 23 18 13 9 12 10 349 322 316 315 317 313 314 312 311 304 278 269 283 300 304 309 316 320 318 317 309 270 256 286
90 88 85 81 80 95 91 73 62 65 58 35 25 16 10 5 3 355 354 345 332 309 304 306 303 308 310 311 309 297 300 300 293 306 316 318 318 318 317 313 301 279 256
92 89 78 66 58 81 102 99 74 68 64 21 19 358 336 333 333 340 340 335 332 319 297 300 306 310 313 314 316 322 327 325 316 316 317 305 294 295 302 307 306 308 303
112 103 81 76 50 48 66 118 139 148 143 86 17 343 327 326 330 336 334 330 331 328 320 315 316 314 318 318 324 336 339 313 296 297 296 292 295 304 308 312 309 323 323
132 127 94 200 222 120 69 70 203 215 201 184 197 218 306 325 312 316 321 322 321 315 319 320 337 345 353 352 345 339 335 339 334 317 307 310 312 313 311 315 306 313 318
188 241 239 243 239 192 150 61 39 51 115 169 186 202 259 273 302 321 330 330 329 330 332 333 338 345 345 340 337 333 331 338 334 325 319 315 314 316 316 319 314 312 322
221 247 253 246 237 214 174 154 90 9 24 7 304 291 295 310 324 334 338 336 336 341 345 339 339 342 338 334 331 326 320 323 323 325 325 325 323 321 322 327 330 326 332
235 248 239 235 230 205 167 153 142 101 16 346 336 340 346 342 342 345 346 347 350 354 349 344 343 339 336 334 333 332 328 331 336 336 334 333 334 331 334 338 338 331 329
242 246 227 182 146 128 123 121 118 106 61 351 341 344 354 350 356 3 2 1 344 344 346 346 343 339 336 336 336 335 332 331 336 336 338 338 339 338 339 343 344 344 343
268 232 157 127 116 114 113 112 112 102 62 15 355 346 347 1 4 355 354 348 349 348 347 346 344 344 342 341 342 341 339 340 343 344 340 339 338 339 341 345 353 358 2
355 100 117 112 115 120 120 126 126 108 63 3 341 345 357 356 350 346 347 354 355 353 350 347 347 348 347 344 344 343 343 339 339 338 337 337 336 336 338 350 5 15 19
117 111 107 113 115 117 120 125 123 124 89 348 340 351 5 10 359 353 354 355 356 356 354 349 348 350 348 344 340 337 335 336 339 338 333 332 332 335 341 1 17 22 26
126 119 109 106 109 115 109 104 113 121 60 13 7 9 10 8 1 358 358 356 358 1 1 359 354 352 350 342 335 329 324 323 319 315 316 322 330 338 349 10 23 31 34
127 130 129 124 113 107 109 104 90 84 75 59 40 25 17 8 359 0 3 2 4 5 4 2 358 353 351 347 338 332 325 317 310 303 308 315 332 350 13 31 36 41 48
122 127 131 133 131 126 117 107 93 81 71 58 44 27 16 11 8 8 9 10 10 8 6 3 356 353 350 348 347 341 331 327 327 328 328 346 14 27 36 41 43 47 48
124 125 127 127 128 130 130 125 113 99 78 64 50 36 26 20 17 17 14 11 8 5 2 359 356 357 355 352 348 342 337 340 345 350 357 22 37 38 40 48 53 52 53